Terminal Aerodrome Forecast
Issued by NWS Sterling, VA

Current Version | Previous Version | Text Only | Print | Product List | Glossary Off
Versions: 1 2 3 4 5 6 7 8 9 10 11 12 13 14 15 16 17 18 19 20 21 22 23

444
FTUS41 KLWX 132043 AAA
TAFIAD
TAF AMD
KIAD 132043Z 1321/1424 31019G27KT P6SM BKN050
     FM140000 31016G25KT P6SM SCT050
     FM140900 32010KT P6SM FEW200
     FM141800 34005KT P6SM FEW200
     FM142100 VRB04KT P6SM BKN150=

USA.gov is the U.S. government's official web portal to all federal, state and local government web resources and services.